Wind_Speed
16 20 22 24 20 13 4 14 19 12 18 34 23 25 27 30 32 32 32 31 34 37 36 35 38 37 35 36 37 38 37 38 40 42 43 44 45 47 48 48 47 45 45 45 44 42 40 44 48
18 21 24 23 16 5 16 20 12 18 31 35 33 31 30 31 32 34 33 30 32 36 36 34 36 36 35 36 37 38 38 38 41 44 47 49 49 48 49 50 47 47 46 46 46 45 42 42 46
22 21 22 23 17 2 22 10 18 29 33 33 32 34 35 31 33 33 33 35 37 38 37 35 37 38 36 38 37 37 39 41 44 47 49 49 49 48 48 49 49 48 47 47 47 47 43 40 44
21 22 21 22 7 9 19 30 31 39 39 39 36 31 37 29 32 32 33 35 36 38 41 35 33 35 37 38 37 36 39 43 46 48 49 48 47 47 48 48 48 50 48 46 45 46 44 42 43
25 23 21 21 15 21 19 24 34 33 33 27 32 30 38 35 31 34 34 35 37 39 40 38 37 36 39 38 35 36 40 44 47 47 45 44 46 47 48 49 48 48 47 46 47 45 45 42 42
26 21 22 16 10 32 24 22 26 36 32 27 32 38 39 38 33 35 33 35 38 39 37 37 36 36 37 39 38 39 42 46 47 44 42 44 42 40 43 46 47 47 43 41 45 47 44 41 43
21 24 23 24 23 15 18 33 35 35 37 30 36 36 37 44 32 33 32 38 40 37 35 35 37 34 35 39 39 41 45 45 44 41 43 44 41 40 40 39 42 43 41 38 41 47 43 41 42
21 25 26 28 24 18 23 27 27 31 35 34 36 35 37 40 35 35 38 37 37 35 35 34 33 35 39 37 35 42 44 43 41 42 45 47 44 43 36 35 37 39 38 39 35 43 48 41 42
24 28 27 30 24 23 20 19 28 33 37 37 40 40 37 32 32 38 37 36 34 32 31 27 30 35 37 37 39 43 43 41 40 42 42 42 40 39 34 33 31 33 32 37 37 36 44 45 43
31 37 34 32 24 32 33 33 31 31 28 30 34 49 44 37 33 29 29 29 29 26 25 27 30 34 35 36 41 41 40 40 39 39 38 36 36 35 34 32 29 28 28 34 38 33 38 42 44
37 43 37 33 31 36 34 32 30 27 34 35 39 43 47 36 24 24 29 29 31 28 29 31 32 34 35 38 41 40 38 38 38 35 36 35 34 30 30 24 26 29 30 32 36 35 34 40 42
47 44 40 37 36 34 31 28 28 32 32 35 40 37 39 41 28 24 25 27 25 25 26 28 32 34 34 38 39 37 37 35 36 35 38 32 32 32 24 24 25 28 25 29 33 37 35 38 41
40 40 39 40 37 31 27 25 30 32 31 31 41 38 36 30 23 24 28 28 28 29 29 29 33 35 36 39 37 36 33 35 33 30 33 31 32 25 21 21 20 21 20 21 31 31 37 38 39
44 38 38 39 29 23 25 28 33 25 32 36 33 31 23 25 27 26 27 29 30 30 30 31 34 34 37 37 34 34 32 31 28 30 31 35 32 22 15 18 17 18 21 20 27 31 36 37 38
38 36 37 34 27 23 24 32 29 24 31 30 34 30 24 28 31 30 28 29 30 31 30 33 33 32 36 34 32 30 25 25 29 30 28 30 28 15 12 16 15 13 21 19 26 32 33 35 39
33 34 33 21 22 24 30 35 33 25 25 33 35 30 31 30 30 31 31 29 30 33 29 32 32 34 35 31 31 27 24 24 28 29 28 28 23 16 13 14 12 10 15 19 24 33 34 35 38
28 28 26 20 19 23 28 38 36 27 24 29 33 32 35 37 28 31 29 30 30 32 30 31 29 32 32 28 31 22 25 24 29 27 25 27 18 14 13 12 8 7 11 16 28 34 34 34 38
19 20 19 17 12 21 33 32 32 36 25 29 31 36 37 30 29 28 29 30 31 30 29 29 28 30 29 27 27 26 25 22 25 25 24 26 16 14 11 11 4 6 8 12 28 31 32 36 36
18 16 18 15 16 22 22 26 35 36 31 26 25 35 31 33 28 26 27 29 30 30 27 26 26 28 25 27 25 27 23 19 20 23 23 23 13 10 8 7 2 3 10 14 24 29 33 37 37
25 22 22 22 23 28 28 30 35 31 20 19 22 22 25 30 24 25 26 29 29 26 26 24 25 25 24 25 23 22 18 18 18 22 23 19 12 8 7 6 1 5 10 18 23 28 31 37 34
31 26 23 21 23 24 24 30 25 18 22 25 24 25 22 22 21 23 22 25 24 23 23 22 25 24 23 23 23 19 19 17 19 19 21 16 16 7 3 4 2 7 11 16 25 29 31 41 36
28 19 17 24 25 26 19 25 23 21 18 24 31 27 20 19 18 19 19 22 22 22 22 20 23 22 20 20 21 20 16 16 18 19 19 19 14 10 2 0 3 8 13 18 23 29 32 39 35
24 18 21 29 25 27 28 29 16 13 13 20 32 38 22 18 19 18 19 23 21 21 21 20 20 20 18 17 17 16 14 19 17 15 15 18 17 15 4 4 6 11 14 18 22 24 23 42 24
23 22 30 27 23 29 21 18 11 6 15 23 33 30 22 20 20 17 20 18 17 18 17 20 18 16 16 14 14 16 17 20 16 10 16 18 16 13 7 4 8 14 17 21 22 21 23 26 27
26 33 30 27 28 25 14 17 17 16 24 29 24 18 21 18 15 16 19 16 14 17 15 18 15 13 14 11 12 14 16 16 14 12 17 18 17 10 9 7 10 16 17 19 21 23 26 26 27
34 32 29 28 23 11 15 15 20 23 25 22 18 14 18 16 14 17 18 13 14 15 14 15 13 11 12 10 11 12 14 16 14 15 18 11 11 10 12 10 11 14 17 19 21 23 24 27 28
34 31 22 24 17 18 15 15 19 29 24 28 22 15 15 16 15 18 16 11 15 11 14 15 14 11 9 7 9 11 15 14 15 16 23 13 10 9 11 13 12 17 17 19 18 18 22 25 26
32 26 29 26 25 24 20 16 18 28 28 20 22 20 16 15 15 16 11 10 13 9 12 14 13 8 8 6 9 11 11 12 12 17 18 12 10 11 9 12 14 16 18 18 18 18 23 25 28
33 36 36 26 22 18 16 11 16 28 24 29 30 18 13 14 14 12 6 10 6 8 11 14 11 9 10 4 9 10 10 11 13 17 21 13 12 13 11 15 15 18 17 15 16 17 19 21 24
28 31 34 28 23 23 18 12 25 23 24 29 26 16 15 14 12 7 5 7 5 7 10 13 11 9 10 9 7 9 9 11 12 17 20 14 12 16 14 14 16 20 20 19 18 18 17 18 22
Wind_Direction
324 317 322 325 329 314 329 248 257 285 267 275 288 280 282 282 281 290 295 302 302 305 308 307 306 304 302 303 304 304 307 309 308 307 305 305 303 299 296 292 289 283 277 273 270 264 254 247 247
320 316 322 324 324 21 281 300 268 258 253 282 290 283 284 286 289 295 301 301 302 302 304 307 302 300 300 302 303 305 306 308 309 308 306 304 301 296 292 288 281 275 272 266 264 263 256 245 244
317 313 323 325 329 325 283 299 253 260 278 285 282 286 277 283 293 299 306 307 308 307 307 309 305 304 303 303 304 303 308 310 310 308 305 300 297 293 289 284 280 272 265 260 257 257 254 247 239
311 304 315 326 30 306 268 262 268 278 289 290 281 285 288 285 295 299 306 307 306 307 306 307 303 300 302 304 303 308 311 310 309 306 302 299 298 295 291 287 280 274 268 259 254 252 249 245 236
300 299 309 339 316 279 289 271 275 278 300 289 286 293 290 301 298 305 309 308 309 307 308 309 304 302 304 306 308 307 306 309 306 303 300 300 298 294 289 284 279 274 268 260 253 250 245 241 233
301 293 304 341 302 306 320 277 287 300 296 293 294 293 300 299 303 307 308 310 307 305 306 303 299 300 308 312 308 305 308 308 304 303 301 300 295 295 295 284 275 272 268 259 251 247 241 235 229
285 290 306 314 313 276 259 283 288 293 294 291 295 298 297 293 308 306 304 311 308 305 303 298 299 306 311 310 308 307 309 308 306 303 300 296 290 296 299 289 273 267 263 259 249 241 234 228 226
283 289 295 299 322 295 280 287 306 302 300 307 298 292 294 304 311 309 303 299 305 303 298 296 299 310 314 311 309 309 310 310 308 302 301 297 292 293 293 287 271 265 261 253 251 239 232 226 221
277 289 297 304 303 277 289 275 275 289 295 297 297 301 298 303 303 309 308 308 310 312 309 303 301 310 314 315 316 313 314 312 308 306 301 298 296 294 295 288 271 261 255 249 245 239 229 225 219
283 288 296 297 291 275 273 280 286 293 289 302 300 301 307 309 307 305 309 318 319 318 313 308 314 315 316 317 318 316 315 311 310 308 309 307 302 297 298 291 271 261 254 247 238 234 225 220 215
282 287 295 295 287 282 285 290 302 296 291 282 288 294 302 311 313 323 326 324 326 321 319 318 316 318 320 319 319 319 316 312 313 315 313 313 308 301 300 282 275 273 264 248 234 227 224 216 214
280 285 292 297 296 290 286 293 306 302 295 292 291 300 299 311 298 309 322 312 319 316 314 318 320 320 319 321 322 318 315 317 312 314 318 317 311 300 294 281 278 270 257 241 230 223 218 215 211
277 282 285 280 294 285 287 303 295 300 298 287 296 305 309 310 311 320 316 317 323 325 322 323 323 322 321 324 321 317 320 320 318 322 321 321 315 298 289 287 281 261 243 236 221 215 211 210 210
277 274 274 283 281 292 293 293 297 307 300 295 308 300 310 318 317 316 319 318 323 329 324 323 323 322 324 325 318 321 326 318 324 330 330 328 322 299 290 301 283 259 232 231 216 204 206 205 203
265 266 271 276 289 290 293 288 303 301 284 293 304 318 306 309 313 313 321 321 327 330 324 322 320 323 327 321 318 321 327 341 339 325 339 335 327 312 299 305 288 258 223 228 210 199 202 201 198
256 263 269 282 282 302 296 296 298 306 279 289 298 308 311 311 307 313 319 321 323 326 324 320 323 330 327 320 323 321 321 335 340 334 338 339 332 323 315 314 297 255 216 216 207 192 196 197 194
256 263 272 284 291 313 269 286 296 307 281 292 294 311 309 299 306 309 316 316 319 325 322 321 326 331 325 327 328 318 325 326 334 330 339 349 336 323 323 323 309 250 212 212 194 186 189 192 191
282 280 276 302 305 271 265 277 302 301 299 284 293 304 304 310 309 310 309 311 323 323 321 322 327 330 326 330 325 327 323 325 334 336 338 347 338 330 340 337 324 216 201 184 179 179 185 187 188
257 252 255 270 276 278 277 294 290 291 300 294 281 274 290 302 309 309 308 314 324 321 319 321 329 330 328 330 331 329 327 318 333 342 344 345 341 332 344 348 356 191 190 178 178 180 181 183 184
250 257 246 245 248 253 255 271 271 290 300 298 290 287 292 299 307 305 313 317 321 317 319 324 329 328 328 330 334 338 344 347 337 339 340 353 349 345 345 358 77 141 169 178 182 181 179 183 183
259 260 249 254 259 258 263 274 290 316 299 289 288 304 300 311 311 312 313 313 318 316 319 327 330 329 330 330 335 338 346 341 343 351 346 352 6 350 340 351 136 141 157 170 174 177 178 179 185
255 253 260 255 250 257 255 272 273 288 308 314 298 312 313 307 314 306 307 309 319 318 321 330 331 330 330 331 337 343 352 343 339 342 346 354 12 6 61 55 138 142 159 161 175 172 179 181 182
243 231 244 258 265 267 268 271 287 292 330 285 277 297 314 318 310 307 306 312 311 315 325 331 332 328 327 333 341 356 351 345 337 347 354 7 14 7 27 138 157 150 150 156 172 182 175 177 174
228 234 236 244 253 264 276 288 287 317 277 265 278 299 319 320 313 307 313 316 310 320 328 335 332 329 327 338 343 3 355 1 359 4 7 5 358 12 45 118 155 156 151 150 161 170 173 179 177
219 221 235 250 256 270 287 302 313 282 260 270 305 291 309 311 310 311 309 312 319 327 332 338 332 329 338 342 342 2 5 14 28 7 1 351 2 38 67 93 155 157 158 158 153 163 172 180 182
224 234 237 248 265 300 326 262 275 290 305 312 313 289 303 311 314 309 315 315 325 333 336 336 331 336 342 341 346 7 14 23 23 13 355 350 15 44 77 89 143 164 158 163 168 174 178 180 182
228 238 251 236 239 241 244 297 299 303 308 311 336 320 298 303 306 304 306 312 331 334 343 336 330 337 346 344 356 16 22 27 17 2 6 34 22 52 70 85 115 156 160 166 171 181 181 179 178
221 243 237 235 241 241 242 245 267 282 287 293 305 313 311 306 298 313 303 323 331 349 351 345 341 18 10 6 5 10 19 18 11 11 20 19 41 49 62 88 91 128 158 160 161 148 160 166 175
221 216 238 241 244 245 275 299 249 266 279 294 305 298 318 316 299 312 307 324 344 4 2 355 358 16 15 346 354 4 24 28 30 29 35 43 54 61 80 105 95 106 133 150 154 154 158 170 179
237 228 232 245 241 241 224 258 255 256 275 288 306 289 296 306 312 311 315 339 8 14 11 360 5 11 35 30 31 35 44 48 43 43 38 46 66 72 84 95 97 111 119 129 141 150 168 169 188
Height
5888 5888 5886 5886 5888 5885 5884 5881 5884 5882 5877 5870 5873 5870 5868 5864 5860 5861 5857 5856 5852 5848 5849 5847 5843 5841 5838 5835 5833 5830 5826 5823 5821 5820 5818 5816 5814 5811 5809 5809 5809 5810 5810 5810 5811 5815 5819 5822 5825
5888 5886 5886 5883 5884 5882 5884 5882 5880 5875 5869 5867 5868 5866 5862 5858 5855 5853 5854 5851 5849 5844 5843 5843 5838 5835 5833 5830 5826 5823 5820 5817 5814 5812 5809 5808 5805 5804 5800 5799 5799 5799 5800 5800 5802 5804 5809 5814 5817
5886 5885 5884 5882 5879 5881 5882 5878 5874 5869 5866 5867 5864 5859 5856 5856 5853 5850 5849 5845 5842 5840 5837 5837 5832 5829 5827 5824 5820 5817 5813 5810 5807 5804 5801 5798 5795 5793 5792 5789 5787 5788 5788 5790 5792 5794 5799 5805 5809
5884 5883 5883 5882 5879 5884 5880 5876 5870 5867 5868 5858 5859 5858 5849 5854 5851 5849 5846 5841 5839 5835 5830 5832 5829 5825 5821 5818 5814 5811 5807 5804 5800 5795 5792 5788 5785 5782 5780 5779 5776 5775 5777 5779 5781 5783 5789 5795 5800
5881 5879 5879 5876 5878 5877 5871 5870 5867 5867 5865 5861 5851 5853 5847 5847 5847 5843 5840 5837 5833 5829 5824 5824 5821 5818 5816 5813 5809 5805 5801 5797 5792 5787 5783 5779 5774 5771 5769 5767 5765 5763 5765 5768 5771 5774 5778 5785 5790
5875 5875 5876 5874 5879 5870 5871 5865 5861 5863 5861 5856 5851 5847 5843 5841 5844 5838 5835 5831 5828 5824 5822 5818 5817 5813 5810 5806 5802 5797 5793 5789 5783 5778 5774 5770 5766 5762 5758 5755 5754 5753 5754 5756 5760 5764 5769 5775 5781
5872 5870 5870 5870 5872 5872 5869 5861 5859 5858 5855 5853 5849 5845 5841 5835 5840 5834 5830 5827 5823 5820 5817 5814 5810 5809 5805 5800 5795 5789 5785 5780 5774 5769 5765 5762 5758 5752 5748 5744 5743 5744 5745 5747 5750 5755 5761 5766 5773
5868 5865 5867 5867 5866 5867 5867 5857 5854 5853 5847 5847 5843 5842 5837 5833 5830 5828 5824 5822 5821 5817 5813 5809 5806 5800 5796 5794 5790 5783 5777 5771 5766 5761 5757 5753 5747 5742 5737 5734 5733 5734 5736 5739 5741 5745 5752 5758 5765
5861 5859 5861 5863 5863 5863 5860 5857 5854 5850 5844 5842 5835 5833 5833 5831 5828 5823 5821 5815 5812 5808 5805 5804 5800 5794 5789 5784 5780 5775 5769 5763 5758 5753 5747 5741 5736 5731 5728 5725 5724 5725 5727 5730 5733 5737 5743 5750 5756
5856 5853 5856 5856 5856 5854 5853 5851 5850 5847 5842 5836 5831 5825 5826 5827 5824 5819 5815 5813 5808 5805 5801 5798 5793 5788 5783 5777 5772 5768 5762 5756 5751 5745 5738 5733 5727 5721 5718 5715 5715 5716 5719 5721 5725 5730 5736 5742 5749
5850 5845 5847 5849 5849 5847 5847 5846 5844 5840 5837 5835 5830 5826 5818 5821 5818 5814 5810 5806 5803 5798 5794 5790 5787 5782 5776 5771 5766 5761 5755 5749 5743 5738 5731 5724 5718 5713 5709 5708 5708 5709 5711 5713 5717 5724 5729 5735 5743
5839 5840 5841 5841 5841 5842 5841 5840 5836 5834 5831 5829 5824 5824 5819 5817 5813 5811 5807 5804 5800 5796 5791 5786 5781 5776 5771 5765 5760 5754 5749 5743 5737 5731 5724 5716 5711 5706 5704 5702 5701 5700 5702 5705 5710 5715 5723 5729 5737
5833 5835 5836 5835 5835 5836 5835 5832 5831 5829 5827 5824 5819 5819 5816 5812 5810 5807 5803 5799 5794 5788 5784 5779 5775 5770 5765 5760 5754 5749 5743 5737 5731 5724 5717 5710 5703 5699 5697 5696 5694 5694 5696 5698 5702 5709 5717 5724 5732
5829 5829 5829 5829 5829 5829 5827 5826 5825 5824 5821 5818 5816 5814 5811 5808 5804 5802 5799 5794 5790 5783 5779 5775 5770 5765 5761 5754 5749 5744 5739 5733 5726 5717 5711 5703 5696 5693 5693 5691 5689 5688 5691 5693 5697 5704 5711 5720 5728
5822 5821 5822 5822 5824 5823 5822 5821 5821 5821 5815 5813 5810 5808 5807 5804 5800 5797 5795 5789 5784 5779 5775 5770 5767 5762 5757 5750 5745 5740 5735 5728 5721 5714 5707 5700 5693 5690 5689 5687 5684 5683 5686 5689 5693 5701 5709 5718 5725
5813 5815 5814 5819 5820 5819 5817 5815 5817 5815 5812 5809 5806 5805 5802 5798 5795 5791 5788 5784 5780 5775 5771 5767 5761 5757 5752 5746 5741 5735 5731 5725 5719 5713 5705 5698 5692 5688 5686 5684 5681 5680 5683 5686 5691 5698 5707 5715 5724
5807 5808 5811 5815 5815 5815 5816 5810 5809 5811 5810 5806 5802 5800 5797 5792 5790 5787 5783 5780 5777 5772 5767 5763 5759 5754 5748 5743 5737 5732 5728 5722 5716 5710 5704 5696 5691 5687 5685 5682 5679 5679 5682 5683 5688 5696 5705 5713 5722
5806 5805 5809 5810 5813 5815 5811 5808 5807 5805 5805 5802 5801 5796 5792 5789 5785 5784 5780 5776 5773 5768 5764 5760 5756 5752 5746 5741 5735 5730 5725 5719 5714 5707 5702 5696 5691 5687 5684 5681 5680 5680 5682 5684 5689 5697 5705 5713 5722
5801 5802 5806 5811 5815 5807 5807 5805 5805 5803 5799 5799 5795 5793 5789 5783 5781 5779 5776 5771 5768 5764 5761 5757 5754 5749 5744 5738 5733 5727 5721 5717 5712 5706 5700 5695 5690 5687 5685 5682 5682 5683 5684 5688 5693 5699 5705 5713 5721
5795 5797 5800 5805 5808 5808 5805 5803 5801 5800 5795 5792 5789 5787 5784 5779 5777 5774 5771 5767 5765 5761 5757 5755 5751 5747 5742 5737 5732 5726 5721 5715 5711 5705 5700 5696 5691 5688 5685 5683 5683 5684 5686 5689 5695 5702 5708 5716 5724
5789 5791 5795 5799 5801 5801 5799 5796 5795 5792 5792 5789 5786 5783 5779 5775 5772 5770 5768 5765 5762 5758 5755 5753 5748 5745 5740 5736 5731 5727 5721 5715 5711 5705 5700 5696 5691 5688 5687 5686 5686 5686 5688 5692 5695 5702 5708 5716 5724
5783 5788 5791 5795 5794 5793 5795 5791 5791 5790 5787 5786 5781 5778 5776 5772 5770 5767 5765 5762 5759 5755 5753 5750 5747 5743 5739 5735 5730 5725 5719 5715 5710 5705 5701 5697 5693 5689 5687 5687 5687 5688 5691 5693 5699 5703 5710 5715 5724
5780 5787 5791 5790 5787 5786 5787 5786 5787 5786 5785 5786 5777 5774 5772 5769 5766 5763 5761 5759 5756 5753 5751 5748 5745 5741 5737 5734 5730 5725 5720 5715 5709 5705 5702 5698 5694 5691 5688 5688 5689 5691 5693 5698 5701 5705 5709 5716 5722
5779 5782 5784 5783 5783 5781 5784 5782 5783 5783 5785 5779 5774 5770 5768 5765 5763 5761 5759 5756 5753 5751 5749 5746 5743 5740 5736 5733 5730 5725 5720 5715 5710 5706 5703 5700 5696 5692 5690 5689 5691 5693 5696 5700 5705 5709 5713 5719 5729
5771 5776 5776 5776 5776 5779 5780 5778 5777 5780 5779 5775 5772 5768 5764 5763 5761 5759 5756 5754 5751 5749 5746 5744 5742 5739 5735 5733 5731 5725 5720 5715 5712 5708 5705 5701 5698 5694 5692 5691 5693 5696 5700 5704 5710 5715 5721 5725 5730
5765 5767 5770 5771 5773 5775 5777 5776 5779 5774 5774 5772 5768 5765 5763 5761 5759 5757 5755 5753 5750 5747 5745 5743 5741 5738 5735 5732 5731 5727 5722 5718 5715 5711 5707 5703 5700 5698 5695 5695 5696 5699 5703 5708 5711 5717 5722 5729 5735
5759 5759 5768 5768 5772 5774 5776 5775 5771 5769 5769 5766 5763 5761 5761 5758 5757 5755 5753 5751 5749 5746 5744 5743 5740 5737 5734 5733 5731 5728 5724 5721 5717 5713 5708 5705 5703 5701 5699 5699 5699 5703 5706 5710 5715 5720 5724 5731 5737
5752 5759 5760 5761 5764 5766 5769 5772 5775 5768 5767 5763 5761 5760 5758 5756 5755 5753 5751 5750 5748 5745 5743 5742 5739 5737 5734 5734 5732 5729 5726 5723 5719 5716 5711 5708 5707 5706 5704 5704 5704 5705 5710 5714 5719 5725 5729 5734 5740
5745 5748 5751 5758 5759 5762 5765 5767 5768 5764 5763 5761 5761 5758 5756 5754 5752 5751 5750 5749 5747 5745 5744 5742 5740 5737 5735 5735 5733 5730 5728 5726 5722 5719 5714 5712 5711 5710 5708 5709 5710 5711 5714 5720 5724 5729 5733 5738 5742
5740 5745 5747 5750 5756 5758 5763 5767 5761 5759 5761 5760 5757 5755 5754 5753 5751 5750 5749 5748 5746 5745 5744 5743 5741 5739 5736 5736 5734 5732 5730 5728 5725 5723 5719 5717 5715 5715 5714 5715 5716 5717 5720 5723 5728 5733 5738 5741 5745